[TLELIST] Archives

 

[TLELIST] Current TLEs

January 5th 2024 PDT

HST 1 20580U 90037B 24005.20805017 .00004711 00000-0 23287-3 0 9996 2 20580 28.4707 1.7415 0002512 56.4140 35.5507 15.15424067652376 ISS (ZARYA) 1 25544U 98067A 24005.33738639 .00013910 00000-0 25047-3 0 9998 2 25544 51.6416 47.2005 0003685 356.1740 93.6034 15.50088423433147 CXO 1 25867U 99040B 24003.92176239 .00000525 00000-0 00000-0 0 9990 2 25867 38.1870 171.2207 9011497 283.3394 0.5718 0.37815964 13930 ...Continue Reading

[TLELIST] Current TLEs

January 4th 2024 PDT

HST 1 20580U 90037B 24004.14972931 .00005086 00000-0 25226-3 0 9999 2 20580 28.4707 8.8068 0002522 44.3906 22.3872 15.15414439652219 ISS (ZARYA) 1 25544U 98067A 24004.37386512 .00152947 00000-0 26263-2 0 9994 2 25544 51.6444 51.9798 0003888 345.7385 123.7761 15.50101737432991 CXO 1 25867U 99040B 24003.92176239 .00000525 00000-0 00000-0 0 9990 2 25867 38.1870 171.2207 9011497 283.3394 0.5718 0.37815964 13930 ...Continue Reading

[TLELIST] Current TLEs

January 4th 2024 PDT

HST 1 20580U 90037B 24004.14972931 .00005086 00000-0 25226-3 0 9999 2 20580 28.4707 8.8068 0002522 44.3906 22.3872 15.15414439652219 ISS (ZARYA) 1 25544U 98067A 24004.37386512 .00152947 00000-0 26263-2 0 9994 2 25544 51.6444 51.9798 0003888 345.7385 123.7761 15.50101737432991 CXO 1 25867U 99040B 24003.92176239 .00000525 00000-0 00000-0 0 9990 2 25867 38.1870 171.2207 9011497 283.3394 0.5718 0.37815964 13930 ...Continue Reading

[TLELIST] Current TLEs

January 4th 2024 PDT

HST 1 20580U 90037B 24004.14972931 .00005086 00000-0 25226-3 0 9999 2 20580 28.4707 8.8068 0002522 44.3906 22.3872 15.15414439652219 ISS (ZARYA) 1 25544U 98067A 24004.37386512 .00152947 00000-0 26263-2 0 9994 2 25544 51.6444 51.9798 0003888 345.7385 123.7761 15.50101737432991 CXO 1 25867U 99040B 24003.92176239 .00000525 00000-0 00000-0 0 9990 2 25867 38.1870 171.2207 9011497 283.3394 0.5718 0.37815964 13930 ...Continue Reading

[TLELIST] Current TLEs

January 3rd 2024 PDT

HST 1 20580U 90037B 24002.44611677 .00005755 00000-0 28686-3 0 9993 2 20580 28.4707 20.1793 0002360 26.9978 87.2701 15.15398748651692 ISS (ZARYA) 1 25544U 98067A 24003.40344844 .00003520 00000-0 69534-4 0 9991 2 25544 51.6452 56.7892 0003782 344.5546 106.2891 15.50039471432846 CXO 1 25867U 99040B 24003.92176239 .00000525 00000-0 00000-0 0 9990 2 25867 38.1870 171.2207 9011497 283.3394 0.5718 0.37815964 13930 ...Continue Reading

[TLELIST] Current TLEs

January 2nd 2024 PDT

HST 1 20580U 90037B 24001.52748420 .00005154 00000-0 25596-3 0 9998 2 20580 28.4706 26.3118 0002344 16.3537 116.4054 15.15387922651559 ISS (ZARYA) 1 25544U 98067A 24002.37126874 .00003589 00000-0 70848-4 0 9992 2 25544 51.6435 61.9105 0003279 345.0157 102.3861 15.49993229432681 CXO 1 25867U 99040B 24003.92176239 .00000525 00000-0 00000-0 0 9990 2 25867 38.1870 171.2207 9011497 283.3394 0.5718 0.37815964 13930 ...Continue Reading

[TLELIST] Current TLEs

January 1st 2024 PDT

HST 1 20580U 90037B 24001.25438515 .00005100 00000-0 25322-3 0 9997 2 20580 28.4706 28.1347 0002316 13.6075 66.3205 15.15384952651774 ISS (ZARYA) 1 25544U 98067A 24001.19509446 .00016136 00000-0 29045-3 0 9995 2 25544 51.6400 67.7274 0003472 339.1814 20.9033 15.49966131432502 CXO 1 25867U 99040B 24003.91929261 .00000525 00000-0 00000+0 0 9999 2 25867 38.1870 171.2208 9011493 283.3393 0.2353 0.37816398 25090 ...Continue Reading

[TLELIST] Current TLEs

December 31st 2023 PDT

HST 1 20580U 90037B 23364.55080833 .00005734 00000-0 28604-3 0 9996 2 20580 28.4706 39.5065 0002210 353.7267 134.0647 15.15367930651513 ISS (ZARYA) 1 25544U 98067A 23365.04603725 .00020554 00000-0 36801-3 0 9993 2 25544 51.6429 73.4137 0003250 334.1590 90.1770 15.49933426432323 CXO 1 25867U 99040B 24001.27402385 .00000481 00000-0 00000-0 0 9991 2 25867 38.1544 171.5390 9015507 283.0801 0.1073 0.37814173 13920 ...Continue Reading

[TLELIST] Current TLEs

December 30th 2023 PDT

HST 1 20580U 90037B 23363.56245611 .00005672 00000-0 28292-3 0 9997 2 20580 28.4705 46.1039 0002131 342.4500 142.8347 15.15356653651103 ISS (ZARYA) 1 25544U 98067A 23364.21289016 .00019994 00000-0 35870-3 0 9995 2 25544 51.6429 77.5396 0003226 329.0861 123.4676 15.49896520432195 CXO 1 25867U 99040B 24001.27402385 .00000481 00000-0 00000-0 0 9991 2 25867 38.1544 171.5390 9015507 283.0801 0.1073 0.37814173 13920 ...Continue Reading

[TLELIST] Current TLEs

December 29th 2023 PDT

HST 1 20580U 90037B 23362.57374319 .00006062 00000-0 30313-3 0 9996 2 20580 28.4705 52.7040 0002162 331.9067 148.9384 15.15346110650950 ISS (ZARYA) 1 25544U 98067A 23363.37967480 .00019716 00000-0 35427-3 0 9999 2 25544 51.6433 81.6692 0003290 326.8090 153.6876 15.49861336432065 CXO 1 25867U 99040B 23363.62805128 .00000427 00000-0 00000-0 0 9992 2 25867 38.1186 171.8718 9018172 282.8043 359.9098 0.37808415 13929 ...Continue Reading
  • This mailing list is a public mailing list - anyone may join or leave, at any time.
  • This mailing list is announce-only.

International Space Station (ISS) / Hubble Space Telescope (HST) / Chandra X-Ray Observatory Orbital Data via EMAIL

Privacy Policy:

Private list